• In Czech Republic
  • List of Countries
  • For 7 days
  • Water Temperature
  • Satellite Maps
  • Weather Map
  • Weather Widgets
  • user-avatar
    Login

    Hourly Weather Salva

    Today, 21 June, Thursday

    Time Temperature Precipitation Wind Pressure Humidity
    00:00 +36°C° 0 mm 5 mps 751 mmHg 39%
    01:00 +36°C° 0 mm 5 mps 751 mmHg 41%
    02:00 +36°C° 0 mm 6 mps 751 mmHg 44%
    03:00 +36°C° 0 mm 6 mps 751 mmHg 46%
    04:00 +36°C° 0 mm 6 mps 751 mmHg 45%
    05:00 +36°C° 0 mm 7 mps 751 mmHg 43%
    06:00 +38°C° 0 mm 7 mps 751 mmHg 42%
    07:00 +40°C° 0 mm 8 mps 752 mmHg 34%
    08:00 +43°C° 0 mm 9 mps 752 mmHg 26%
    09:00 +46°C° 0 mm 11 mps 752 mmHg 18%
    10:00 +47°C° 0 mm 11 mps 752 mmHg 16%
    11:00 +48°C° 0 mm 10 mps 752 mmHg 14%
    12:00 +49°C° 0 mm 10 mps 751 mmHg 13%
    13:00 +48°C° 0 mm 10 mps 751 mmHg 12%
    14:00 +48°C° 0 mm 10 mps 751 mmHg 12%
    15:00 +48°C° 0 mm 10 mps 750 mmHg 12%
    16:00 +47°C° 0 mm 9 mps 751 mmHg 14%
    17:00 +44°C° 0 mm 9 mps 751 mmHg 15%
    18:00 +43°C° 0 mm 8 mps 751 mmHg 17%
    19:00 +41°C° 0 mm 7 mps 751 mmHg 20%
    20:00 +40°C° 0 mm 6 mps 751 mmHg 23%
    21:00 +38°C° 0 mm 4 mps 751 mmHg 26%
    22:00 +37°C° 0 mm 4 mps 751 mmHg 27%
    23:00 +36°C° 0 mm 3 mps 751 mmHg 27%

    Tomorrow, 22 June, Friday

    Time Temperature Precipitation Wind Pressure Humidity
    00:00 +36°C° 0 mm 2 mps 751 mmHg 28%
    01:00 +36°C° 0 mm 3 mps 751 mmHg 28%
    02:00 +36°C° 0 mm 4 mps 751 mmHg 27%
    03:00 +36°C° 0 mm 4 mps 751 mmHg 26%
    04:00 +36°C° 0 mm 5 mps 751 mmHg 26%
    05:00 +36°C° 0 mm 6 mps 751 mmHg 26%
    06:00 +36°C° 0 mm 7 mps 752 mmHg 25%
    07:00 +39°C° 0 mm 8 mps 752 mmHg 22%
    08:00 +43°C° 0 mm 9 mps 752 mmHg 20%
    09:00 +45°C° 0 mm 10 mps 752 mmHg 17%
    10:00 +45°C° 0 mm 10 mps 752 mmHg 15%
    11:00 +47°C° 0 mm 10 mps 751 mmHg 14%
    12:00 +48°C° 0 mm 10 mps 751 mmHg 13%
    13:00 +48°C° 0 mm 9 mps 751 mmHg 13%
    14:00 +48°C° 0 mm 9 mps 750 mmHg 13%
    15:00 +48°C° 0 mm 9 mps 750 mmHg 13%
    16:00 +45°C° 0 mm 8 mps 750 mmHg 15%
    17:00 +44°C° 0 mm 7 mps 750 mmHg 17%
    18:00 +42°C° 0 mm 6 mps 750 mmHg 19%
    19:00 +40°C° 0 mm 5 mps 750 mmHg 23%
    20:00 +38°C° 0 mm 4 mps 751 mmHg 26%
    21:00 +37°C° 0 mm 3 mps 751 mmHg 30%
    22:00 +36°C° 0 mm 3 mps 751 mmHg 30%
    23:00 +36°C° 0 mm 3 mps 751 mmHg 31%

    Day after tomorrow, 23 June, Saturday

    Time Temperature Precipitation Wind Pressure Humidity
    00:00 +36°C° 0 mm 3 mps 751 mmHg 32%
    01:00 +35°C° 0 mm 3 mps 750 mmHg 30%
    02:00 +35°C° 0 mm 4 mps 750 mmHg 29%
    03:00 +35°C° 0 mm 4 mps 750 mmHg 27%
    04:00 +36°C° 0 mm 5 mps 750 mmHg 25%
    05:00 +36°C° 0 mm 5 mps 751 mmHg 24%
    06:00 +36°C° 0 mm 6 mps 751 mmHg 22%
    07:00 +39°C° 0 mm 7 mps 751 mmHg 21%
    08:00 +41°C° 0 mm 8 mps 751 mmHg 20%
    09:00 +44°C° 0 mm 10 mps 752 mmHg 19%
    10:00 +45°C° 0 mm 10 mps 751 mmHg 17%
    11:00 +47°C° 0 mm 10 mps 751 mmHg 16%
    12:00 +48°C° 0 mm 10 mps 751 mmHg 14%
    13:00 +48°C° 0 mm 9 mps 750 mmHg 14%
    14:00 +48°C° 0 mm 9 mps 750 mmHg 13%
    15:00 +48°C° 0 mm 9 mps 749 mmHg 13%
    16:00 +45°C° 0 mm 9 mps 749 mmHg 15%
    17:00 +44°C° 0 mm 8 mps 750 mmHg 17%
    18:00 +41°C° 0 mm 7 mps 750 mmHg 18%
    19:00 +40°C° 0 mm 6 mps 750 mmHg 22%
    20:00 +39°C° 0 mm 5 mps 751 mmHg 25%
    21:00 +37°C° 0 mm 4 mps 751 mmHg 29%
    22:00 +36°C° 0 mm 4 mps 751 mmHg 29%
    23:00 +36°C° 0 mm 4 mps 751 mmHg 30%

    24 June, Sunday

    Time Temperature Precipitation Wind Pressure Humidity
    00:00 +36°C° 0 mm 3 mps 750 mmHg 30%
    01:00 +36°C° 0 mm 4 mps 750 mmHg 29%
    02:00 +36°C° 0 mm 4 mps 750 mmHg 27%
    03:00 +35°C° 0 mm 4 mps 750 mmHg 25%
    04:00 +36°C° 0 mm 4 mps 750 mmHg 25%
    05:00 +36°C° 0 mm 4 mps 750 mmHg 24%
    06:00 +36°C° 0 mm 5 mps 751 mmHg 23%
    07:00 +39°C° 0 mm 6 mps 751 mmHg 21%
    08:00 +43°C° 0 mm 7 mps 751 mmHg 19%
    09:00 +45°C° 0 mm 8 mps 752 mmHg 16%
    10:00 +46°C° 0 mm 8 mps 751 mmHg 15%
    11:00 +48°C° 0 mm 9 mps 751 mmHg 13%
    12:00 +49°C° 0 mm 9 mps 750 mmHg 12%
    13:00 +49°C° 0 mm 9 mps 750 mmHg 12%
    14:00 +49°C° 0 mm 8 mps 750 mmHg 12%
    15:00 +48°C° 0 mm 8 mps 749 mmHg 12%
    16:00 +46°C° 0 mm 7 mps 750 mmHg 14%
    17:00 +45°C° 0 mm 7 mps 750 mmHg 16%
    18:00 +42°C° 0 mm 6 mps 750 mmHg 18%
    19:00 +41°C° 0 mm 5 mps 750 mmHg 20%
    20:00 +40°C° 0 mm 4 mps 751 mmHg 22%
    21:00 +38°C° 0 mm 3 mps 751 mmHg 24%
    22:00 +37°C° 0 mm 3 mps 751 mmHg 25%
    23:00 +37°C° 0 mm 3 mps 750 mmHg 26%

    25 June, Monday

    Time Temperature Precipitation Wind Pressure Humidity
    00:00 +36°C° 0 mm 3 mps 750 mmHg 27%
    01:00 +36°C° 0 mm 3 mps 750 mmHg 27%
    02:00 +36°C° 0 mm 3 mps 750 mmHg 27%
    03:00 +35°C° 0 mm 3 mps 749 mmHg 26%
    04:00 +36°C° 0 mm 3 mps 750 mmHg 25%
    05:00 +36°C° 0 mm 4 mps 750 mmHg 23%
    06:00 +37°C° 0 mm 4 mps 750 mmHg 22%
    07:00 +40°C° 0 mm 5 mps 750 mmHg 18%
    08:00 +43°C° 0 mm 5 mps 751 mmHg 14%
    09:00 +47°C° 0 mm 6 mps 751 mmHg 10%
    10:00 +48°C° 0 mm 6 mps 750 mmHg 9%
    11:00 +49°C° 0 mm 6 mps 750 mmHg 8%
    12:00 +51°C° 0 mm 6 mps 749 mmHg 8%
    13:00 +51°C° 0 mm 6 mps 749 mmHg 8%
    14:00 +51°C° 0 mm 6 mps 748 mmHg 9%
    15:00 +51°C° 0 mm 6 mps 748 mmHg 9%
    16:00 +49°C° 0 mm 5 mps 748 mmHg 12%
    17:00 +47°C° 0 mm 5 mps 748 mmHg 15%
    18:00 +46°C° 0 mm 5 mps 748 mmHg 18%
    19:00 +43°C° 0 mm 4 mps 748 mmHg 23%
    20:00 +41°C° 0 mm 4 mps 749 mmHg 29%
    21:00 +39°C° 0 mm 3 mps 749 mmHg 34%
    22:00 +38°C° 0 mm 3 mps 749 mmHg 34%
    23:00 +38°C° 0 mm 3 mps 748 mmHg 34%

    26 June, Tuesday

    Time Temperature Precipitation Wind Pressure Humidity
    00:00 +37°C° 0 mm 3 mps 748 mmHg 33%
    01:00 +37°C° 0 mm 3 mps 748 mmHg 31%
    02:00 +37°C° 0 mm 4 mps 748 mmHg 29%
    03:00 +37°C° 0 mm 4 mps 747 mmHg 27%
    04:00 +37°C° 0 mm 4 mps 748 mmHg 26%
    05:00 +37°C° 0 mm 4 mps 748 mmHg 24%
    06:00 +37°C° 0 mm 4 mps 748 mmHg 23%
    07:00 +41°C° 0 mm 5 mps 748 mmHg 19%
    08:00 +45°C° 0 mm 6 mps 748 mmHg 15%
    09:00 +49°C° 0 mm 7 mps 748 mmHg 11%
    10:00 +50°C° 0 mm 7 mps 748 mmHg 10%
    11:00 +51°C° 0 mm 7 mps 747 mmHg 10%
    12:00 +52°C° 0 mm 7 mps 747 mmHg 10%
    13:00 +52°C° 0 mm 7 mps 747 mmHg 11%
    14:00 +51°C° 0 mm 7 mps 746 mmHg 12%
    15:00 +51°C° 0 mm 7 mps 746 mmHg 13%
    16:00 +50°C° 0 mm 7 mps 746 mmHg 16%
    17:00 +47°C° 0 mm 6 mps 746 mmHg 19%
    18:00 +45°C° 0 mm 6 mps 746 mmHg 22%
    19:00 +43°C° 0 mm 5 mps 747 mmHg 27%
    20:00 +41°C° 0 mm 4 mps 747 mmHg 32%
    21:00 +39°C° 0 mm 3 mps 747 mmHg 37%
    22:00 +38°C° 0 mm 3 mps 747 mmHg 38%
    23:00 +38°C° 0 mm 3 mps 747 mmHg 40%
    Show more